Location: ????????
(37.6846°N, 24.0673°E)
Time: 14:58:52
(UTC+00:00)

Cosmos 1697 Rocket - Pass Details

Date: 14 July 2020
Orbit: 833 x 842 km, 71.0° (Epoch: 03 August)

Event Time Altitude Azimuth Distance (km) Brightness Sun altitude
Rises 00:28:19 0° 341° (NNW) 3,392 6.4 -24.4°
Reaches altitude 10° 00:30:48 10° 344° (NNW) 2,453 5.6 -24.2°
Maximum altitude 00:36:22 63° 66° (ENE) 930 3.0 -23.6°
Enters shadow 00:40:39 17° 144° (SE) 1,978 4.4 -23.2°
